Location: Caltech
(34.1382°N, 118.1253°W)
Time: 14:24:01
(UTC-07:00)

ITAMSAT 1 - Visible Passes

Search period start: 20 April 2014 00:00
Search period end: 30 April 2014 00:00
Orbit: 784 x 799 km, 98.7° (Epoch: 19 April)

Date Brightness Start Highest point End Pass type
(mag) Time Alt. Az. Time Alt. Az. Time Alt. Az.
20 Apr 9.4 02:43:08 10° NNE 02:45:45 29° NE 02:45:45 29° NE visible
20 Apr 9.5 04:24:10 10° NNW 04:26:31 16° NW 04:26:31 16° NW visible
21 Apr 10.0 02:14:42 10° NE 02:16:27 18° NE 02:16:27 18° NE visible
21 Apr 9.0 03:54:00 10° N 03:57:12 27° NW 03:57:12 27° NW visible
22 Apr 8.6 03:24:30 10° N 03:27:54 39° NNW 03:27:54 39° NNW visible
23 Apr 8.9 02:55:24 10° NNE 02:58:35 38° NNE 02:58:35 38° NNE visible
23 Apr 9.7 04:37:33 10° NW 04:39:21 12° WNW 04:39:21 12° WNW visible
24 Apr 9.6 02:26:44 10° NNE 02:29:17 25° NE 02:29:17 25° NE visible
24 Apr 9.1 04:06:43 10° NNW 04:10:02 22° NW 04:10:02 22° NW visible
25 Apr 10.2 01:58:45 10° NE 01:59:58 14° ENE 01:59:58 14° ENE visible
25 Apr 8.5 03:37:00 10° N 03:40:44 38° NW 03:40:44 38° NW visible
26 Apr 8.4 03:07:44 10° NNE 03:11:25 48° N 03:11:25 48° N visible
27 Apr 9.1 02:38:52 10° NNE 02:42:06 34° NE 02:42:06 34° NE visible
27 Apr 9.3 04:19:36 10° NNW 04:22:51 18° WNW 04:22:51 18° WNW visible
28 Apr 9.8 02:10:32 10° NE 02:12:46 20° ENE 02:12:46 20° ENE visible
28 Apr 8.6 03:49:34 10° N 03:53:32 32° NW 03:53:32 32° NW visible
29 Apr 8.1 03:20:08 10° N 03:24:13 52° NNW 03:24:13 52° NNW visible
